User: anonymous   Login
Location: Fremont
(37.5480°N, 121.9880°W)
Time: 06:24:27
(UTC-07:00)
Language:

Cosmos 1766 - Orbit

View from above orbital plane
View from above orbital plane
View from above satellite
View from above satellite

Ground track
Ground track

The orbit data is extracted from the following two-line orbital elements,

1 16881U 86055A   15142.47852186  .00002463  00000-0  15722-3 0  9997
2 16881 082.5153 043.0151 0013494 148.5858 211.6179 15.08183239567290
Epoch (UTC): 22 May 2015 11:29:04
Eccentricity: 0.0013494
inclination: 82.5153°
perigee height: 532 km
apogee height: 551 km
right ascension of ascending node: 43.0151°
argument of perigee: 148.5858°
revolutions per day: 15.08183239
mean anomaly at epoch: 211.6179°
orbit number at epoch: 56729

The dashed part of the orbit path shows where the satellite is in the earth's shadow,  

DLR